This is the latest recevied weather packets stored in our database for station/object W5ADC. If no packets are shown the sender has not sent any weather packets the latest 10 day(s).
| Time | Temp. | Humidity | Pressure | Rain* | Wind** | Luminosity | Snow |
|---|---|---|---|---|---|---|---|
| 1778160312 | 13.89° C | 83% | 1016.9 hPa | 0 mm | - | 177 W/m² | - |
| 1778160008 | 13.33° C | 85% | 1016.8 hPa | 0 mm | - | 165 W/m² | - |
| 1778159705 | 13.33° C | 85% | 1016.8 hPa | 0 mm | - | 147 W/m² | - |
| 1778159403 | 13.33° C | 86% | 1016.9 hPa | 0 mm | - | 151 W/m² | - |
| 1778159099 | 13.33° C | 87% | 1016.8 hPa | 0 mm | - | 116 W/m² | - |
| 1778158798 | 12.78° C | 87% | 1016.6 hPa | 0 mm | - | 96 W/m² | - |
| 1778158496 | 12.78° C | 89% | 1016.6 hPa | 0 mm | - | 109 W/m² | - |
| 1778158193 | 12.78° C | 91% | 1016.7 hPa | 0 mm | - | 97 W/m² | - |
| 1778157889 | 12.22° C | 93% | 1016.3 hPa | 0 mm | - | 92 W/m² | - |
| 1778157587 | 11.67° C | 95% | 1016.3 hPa | 0 mm | - | 66 W/m² | - |
| 1778157285 | 11.67° C | 96% | 1016.5 hPa | 0 mm | - | 60 W/m² | - |
| 1778156981 | 11.11° C | 96% | 1016.5 hPa | 0 mm | - | 42 W/m² | - |
| 1778156676 | 11.11° C | 97% | 1016.6 hPa | 0 mm | - | 44 W/m² | - |
| 1778156372 | 10.56° C | 97% | 1016.5 hPa | 0 mm | - | 41 W/m² | - |
| 1778156068 | 10.56° C | 98% | 1016.3 hPa | 0 mm | - | 35 W/m² | - |
| 1778155765 | 10.56° C | 98% | 1016.2 hPa | 0 mm | - | 29 W/m² | - |
| 1778155461 | 10.56° C | 98% | 1016.3 hPa | 0 mm | - | 22 W/m² | - |
| 1778155157 | 10° C | 98% | 1016.1 hPa | 0 mm | - | 20 W/m² | - |
| 1778154854 | 10° C | 97% | 1015.9 hPa | 0 mm | - | 17 W/m² | - |
| 1778154550 | 10° C | 97% | 1015.9 hPa | 0 mm | - | 12 W/m² | - |
| 1778154246 | 10.56° C | 97% | 1016 hPa | 0 mm | - | 8 W/m² | - |
| 1778153944 | 10.56° C | 97% | 1015.8 hPa | 0 mm | - | 4 W/m² | - |
| 1778153641 | 10.56° C | 97% | 1015.8 hPa | 0 mm | - | 2 W/m² | - |
| 1778153338 | 10.56° C | 97% | 1015.6 hPa | 0 mm | - | 1 W/m² | - |
| 1778153035 | 10.56° C | 97% | 1015.7 hPa | 0 mm | - | 1 W/m² | - |
* Rain latest hour (hover to see other rain measurements)
** Current wind speed in m/s (hover to see current wind gust speed)